EW9434 Weather Reports


Display with metric or nautical units.
time (UTC)temp
F
wind
direction
speed
MPH
gust
MPH
rain 1hr
in
rain 24hr
in
rain mn
in
humidity
%
barometer
mb
20260831224601 89 217 3.0 11.0 0.00 0.00 0.00 57 1014.2
20260831224447 90 103 3.0 12.0 0.00 0.00 0.00 57 1015.7
20260831223725 90 226 4.0 12.0 0.00 0.00 0.00 56 1015.7
20260831223225 90 165 6.0 17.0 0.00 0.00 0.00 54 1015.7
20260831223045 90 197 6.0 17.0 0.00 0.00 0.00 54 1014.2
20260831222920 91 165 6.0 16.0 0.00 0.00 0.00 54 1015.7
20260831222424 91 149 6.0 12.0 0.00 0.00 0.00 54 1015.9
20260831221655 91 124 5.0 14.0 0.00 0.00 0.00 52 1016.0
20260831221512 91 206 5.0 14.0 0.00 0.00 0.00 52 1014.5
20260831221154 91 163 5.0 14.0 0.00 0.00 0.00 53 1016.1
20260831220651 91 171 6.0 14.0 0.00 0.00 0.00 52 1016.1
20260831220132 91 190 5.0 14.0 0.00 0.00 0.00 53 1016.1
20260831220057 91 110 6.0 10.0 0.00 0.00 0.00 52 1014.7
20260831215632 91 151 4.0 10.0 0.00 0.00 0.00 53 1016.2
20260831215132 91 130 4.0 12.0 0.00 0.00 0.00 52 1016.4
20260831214638 91 192 4.0 12.0 0.00 0.00 0.00 54 1015.0
20260831214610 91 149 4.0 12.0 0.00 0.00 0.00 53 1016.5
20260831214041 91 163 4.0 12.0 0.00 0.00 0.00 52 1016.4
20260831213520 91 113 5.0 13.0 0.00 0.00 0.00 52 1016.5
20260831213242 92 211 3.0 13.0 0.00 0.00 0.00 51 1016.6
20260831213005 91 193 6.0 13.0 0.00 0.00 0.00 52 1015.1
20260831212514 92 159 3.0 11.0 0.00 0.00 0.00 51 1016.6
20260831211952 92 163 4.0 10.0 0.00 0.00 0.00 52 1016.6
20260831211512 91 238 4.0 13.0 0.00 0.00 0.00 52 1015.2
20260831211429 92 196 5.0 13.0 0.00 0.00 0.00 51 1016.7
20260831210901 92 195 5.0 13.0 0.00 0.00 0.00 52 1016.8
20260831210338 92 206 5.0 11.0 0.00 0.00 0.00 50 1016.8
20260831210004 92 224 4.0 13.0 0.00 0.00 0.00 50 1015.3
20260831205816 92 201 5.0 13.0 0.00 0.00 0.00 49 1017.0
20260831205252 92 182 4.0 13.0 0.00 0.00 0.00 48 1017.0
20260831204741 92 194 4.0 10.0 0.00 0.00 0.00 49 1017.0
20260831204554 92 188 4.0 10.0 0.00 0.00 0.00 50 1015.5
20260831204507 92 147 4.0 10.0 0.00 0.00 0.00 49 1017.1
20260831203741 93 186 4.0 10.0 0.00 0.00 0.00 50 1017.1
20260831203237 92 188 4.0 10.0 0.00 0.00 0.00 50 1017.1
20260831203012 92 175 3.0 10.0 0.00 0.00 0.00 51 1015.6
20260831202710 92 128 5.0 10.0 0.00 0.00 0.00 49 1017.3
20260831202202 92 216 5.0 12.0 0.00 0.00 0.00 50 1017.2
20260831201632 92 189 5.0 11.0 0.00 0.00 0.00 51 1017.3
20260831201540 91 187 4.0 11.0 0.00 0.00 0.00 51 1015.7
20260831201354 92 155 5.0 12.0 0.00 0.00 0.00 52 1017.4
20260831200626 92 212 5.0 12.0 0.00 0.00 0.00 53 1017.5
20260831200058 92 231 3.0 10.0 0.00 0.00 0.00 52 1016.0
20260831195752 92 157 5.0 9.0 0.00 0.00 0.00 52 1017.7
20260831195011 91 181 4.0 12.0 0.00 0.00 0.00 54 1017.7
20260831194616 90 144 3.0 9.0 0.00 0.00 0.00 56 1017.8
20260831194523 90 180 6.0 12.0 0.00 0.00 0.00 54 1016.3
20260831194511 91 120 4.0 9.0 0.00 0.00 0.00 54 1017.8
20260831193347 91 192 4.0 10.0 0.00 0.00 0.00 56 1018.0
20260831193111 91 170 4.0 9.0 0.00 0.00 0.00 53 1017.9
20260831193036 90 204 4.0 10.0 0.00 0.00 0.00 54 1016.4
20260831192544 91 139 4.0 10.0 0.00 0.00 0.00 56 1017.9
20260831191757 91 205 4.0 10.0 0.00 0.00 0.00 56 1017.9
20260831191505 90 122 4.0 10.0 0.00 0.00 0.00 57 1016.4
20260831191229 90 192 4.0 11.0 0.00 0.00 0.00 56 1018.0
20260831190725 91 163 4.0 11.0 0.00 0.00 0.00 55 1018.0
20260831190450 92 136 3.0 10.0 0.00 0.00 0.00 53 1018.1
20260831190109 91 103 4.0 10.0 0.00 0.00 0.00 53 1016.6
20260831185717 91 201 3.0 8.0 0.00 0.00 0.00 56 1018.1
20260831185216 91 199 4.0 9.0 0.00 0.00 0.00 55 1018.2
20260831184652 90 218 3.0 9.0 0.00 0.00 0.00 55 1018.2
20260831184510 90 206 2.0 9.0 0.00 0.00 0.00 58 1016.7
20260831184146 90 225 3.0 12.0 0.00 0.00 0.00 58 1018.3
20260831183645 90 151 4.0 12.0 0.00 0.00 0.00 55 1018.3
20260831183139 91 194 4.0 11.0 0.00 0.00 0.00 55 1018.3
20260831183048 90 193 3.0 10.0 0.00 0.00 0.00 56 1016.8
20260831182904 90 165 4.0 11.0 0.00 0.00 0.00 55 1018.3
20260831182114 90 152 5.0 12.0 0.00 0.00 0.00 54 1018.3
20260831181548 90 164 5.0 12.0 0.00 0.00 0.00 56 1018.4
20260831181523 90 190 4.0 12.0 0.00 0.00 0.00 59 1016.9
20260831181018 90 205 4.0 11.0 0.00 0.00 0.00 58 1018.4
20260831180518 91 202 5.0 11.0 0.00 0.00 0.00 58 1018.5
20260831180011 91 155 6.0 11.0 0.00 0.00 0.00 57 1017.0
20260831175948 91 191 5.0 13.0 0.00 0.00 0.00 57 1018.5
20260831175448 91 199 4.0 13.0 0.00 0.00 0.00 57 1018.5
20260831174918 91 168 5.0 13.0 0.00 0.00 0.00 61 1018.6
20260831174607 90 215 4.0 17.0 0.00 0.00 0.00 60 1017.1
20260831174418 90 215 6.0 17.0 0.00 0.00 0.00 61 1018.6
20260831173848 89 215 4.0 16.0 0.00 0.00 0.00 62 1018.6
20260831173346 89 167 3.0 9.0 0.00 0.00 0.00 62 1018.7
20260831173102 88 194 2.0 9.0 0.00 0.00 0.00 63 1017.3
20260831172818 89 185 3.0 10.0 0.00 0.00 0.00 62 1018.9
20260831172541 90 234 4.0 10.0 0.00 0.00 0.00 61 1018.8
20260831171812 90 136 4.0 10.0 0.00 0.00 0.00 63 1018.8
20260831171610 89 201 3.0 10.0 0.00 0.00 0.00 63 1017.3
20260831171310 89 134 4.0 10.0 0.00 0.00 0.00 64 1018.8
20260831170744 89 182 4.0 9.0 0.00 0.00 0.00 66 1018.8
20260831170511 88 201 5.0 12.0 0.00 0.00 0.00 66 1018.8
20260831170059 88 200 4.0 12.0 0.00 0.00 0.00 65 1017.4
20260831165717 88 178 4.0 11.0 0.00 0.00 0.00 68 1018.9
20260831165208 87 208 4.0 11.0 0.00 0.00 0.00 66 1019.0
20260831164708 87 84 3.0 11.0 0.00 0.00 0.00 67 1019.0
20260831164526 87 169 2.0 11.0 0.00 0.00 0.00 68 1017.5
20260831164139 87 177 3.0 7.0 0.00 0.00 0.00 67 1019.1
20260831163637 87 211 3.0 8.0 0.00 0.00 0.00 67 1019.1
20260831163108 88 202 4.0 11.0 0.00 0.00 0.00 65 1019.2
20260831163049 88 184 4.0 11.0 0.00 0.00 0.00 64 1019.2
20260831163019 87 217 2.0 10.0 0.00 0.00 0.00 66 1017.6
20260831162055 88 109 5.0 13.0 0.00 0.00 0.00 66 1019.1
20260831161553 87 199 5.0 13.0 0.00 0.00 0.00 66 1017.7
20260831161551 87 200 5.0 13.0 0.00 0.00 0.00 66 1019.2
20260831161056 87 75 5.0 12.0 0.00 0.00 0.00 66 1019.1
20260831160526 87 128 5.0 12.0 0.00 0.00 0.00 66 1019.1
20260831160105 86 155 4.0 15.0 0.00 0.00 0.00 66 1017.7
20260831160025 87 203 6.0 15.0 0.00 0.00 0.00 68 1019.1
20260831155457 87 188 5.0 15.0 0.00 0.00 0.00 65 1019.1
20260831154956 87 101 5.0 12.0 0.00 0.00 0.00 68 1019.1
20260831154508 86 176 5.0 12.0 0.00 0.00 0.00 69 1017.5
20260831154429 86 144 4.0 11.0 0.00 0.00 0.00 69 1019.1
20260831153901 85 132 4.0 11.0 0.00 0.00 0.00 69 1019.0
20260831153335 85 100 3.0 7.0 0.00 0.00 0.00 69 1019.0
20260831153110 85 179 4.0 7.0 0.00 0.00 0.00 68 1017.5
20260831152809 85 194 3.0 9.0 0.00 0.00 0.00 70 1019.0
20260831152306 84 183 3.0 9.0 0.00 0.00 0.00 71 1019.0
20260831151734 84 172 3.0 8.0 0.00 0.00 0.00 72 1019.0
20260831151532 83 120 3.0 8.0 0.00 0.00 0.00 72 1017.5
20260831151232 83 96 3.0 8.0 0.00 0.00 0.00 71 1019.0
20260831150730 83 39 2.0 7.0 0.00 0.00 0.00 71 1019.0
20260831150202 83 155 2.0 7.0 0.00 0.00 0.00 73 1019.0
20260831150113 82 155 1.0 7.0 0.00 0.00 0.00 73 1017.6
20260831145921 83 153 2.0 7.0 0.00 0.00 0.00 73 1019.0
20260831145336 82 154 2.0 5.0 0.00 0.00 0.00 74 1019.0
20260831145216 82 121 2.0 5.0 0.00 0.00 0.00 74 1019.0
20260831144537 81 145 2.0 5.0 0.00 0.00 0.00 75 1017.5
20260831144350 81 119 2.0 5.0 0.00 0.00 0.00 77 1019.0
20260831143604 81 143 2.0 5.0 0.00 0.00 0.00 76 1019.0
20260831143058 80 133 2.0 5.0 0.00 0.00 0.00 76 1019.0
20260831143007 80 134 2.0 4.0 0.00 0.00 0.00 76 1017.6
20260831142555 80 142 2.0 5.0 0.00 0.00 0.00 77 1018.9
20260831142030 80 126 2.0 5.0 0.00 0.00 0.00 78 1018.8
20260831141649 79 113 2.0 5.0 0.00 0.00 0.00 78 1018.8
20260831141547 79 128 2.0 5.0 0.00 0.00 0.00 78 1017.3
20260831141540 79 127 2.0 5.0 0.00 0.00 0.00 78 1018.8
20260831140435 79 135 2.0 5.0 0.00 0.00 0.00 79 1018.8
20260831140339 79 136 2.0 4.0 0.00 0.00 0.00 79 1018.8
20260831140039 78 135 1.0 4.0 0.00 0.00 0.00 79 1017.3
20260831135958 79 135 2.0 4.0 0.00 0.00 0.00 79 1018.8
20260831134901 78 135 2.0 4.0 0.00 0.00 0.00 80 1018.8
20260831134542 78 135 1.0 4.0 0.00 0.00 0.00 80 1017.4
20260831134358 78 135 2.0 5.0 0.00 0.00 0.00 79 1018.8
20260831133852 78 136 2.0 5.0 0.00 0.00 0.00 79 1018.8
20260831133608 78 140 2.0 4.0 0.00 0.00 0.00 79 1018.8
20260831133100 78 140 2.0 4.0 0.00 0.00 0.00 79 1017.4
20260831132822 78 137 1.0 4.0 0.00 0.00 0.00 80 1018.8
20260831132322 78 137 2.0 4.0 0.00 0.00 0.00 80 1018.8
20260831131757 78 137 2.0 5.0 0.00 0.00 0.00 80 1018.8
20260831131510 77 136 1.0 5.0 0.00 0.00 0.00 80 1017.3
20260831130749 78 116 2.0 4.0 0.00 0.00 0.00 80 1018.7
20260831130224 78 113 2.0 5.0 0.00 0.00 0.00 80 1018.7
20260831130109 77 113 1.0 5.0 0.00 0.00 0.00 80 1017.3
20260831125656 77 118 2.0 4.0 0.00 0.00 0.00 80 1018.7
20260831125129 77 106 1.0 3.0 0.00 0.00 0.00 80 1018.7
20260831124628 77 104 1.0 4.0 0.00 0.00 0.00 82 1018.5
20260831124557 76 104 0.0 4.0 0.00 0.00 0.00 82 1017.1
20260831124100 76 204 1.0 3.0 0.00 0.00 0.00 82 1018.5
20260831123535 76 224 0.0 2.0 0.00 0.00 0.00 82 1018.6
20260831123034 76 232 0.0 1.0 0.00 0.00 0.00 82 1018.5
20260831123011 75 232 0.0 3.0 0.00 0.00 0.00 82 1017.1
20260831122525 76 232 1.0 3.0 0.00 0.00 0.00 82 1018.5
20260831121957 75 232 0.0 2.0 0.00 0.00 0.00 82 1018.5
20260831121714 75 232 0.0 1.0 0.00 0.00 0.00 82 1018.4
20260831121534 75 232 0.0 1.0 0.00 0.00 0.00 82 1017.0
20260831120946 75 232 0.0 1.0 0.00 0.00 0.00 82 1018.5
20260831120446 75 232 0.0 2.0 0.00 0.00 0.00 82 1018.5
20260831120149 75 233 0.0 2.0 0.00 0.00 0.00 82 1017.0
20260831115942 75 233 0.0 2.0 0.00 0.00 0.00 82 1018.5
20260831115701 75 233 0.0 3.0 0.00 0.00 0.00 82 1018.4
20260831115403 75 236 0.0 3.0 0.00 0.00 0.00 82 1018.4
20260831114541 75 236 0.0 3.0 0.00 0.00 0.00 82 1016.9
20260831114413 75 236 1.0 3.0 0.00 0.00 0.00 82 1018.3
20260831113912 75 242 1.0 3.0 0.00 0.00 0.00 82 1018.2
20260831113349 75 254 0.0 2.0 0.00 0.00 0.00 82 1018.2
20260831113012 74 254 0.0 1.0 0.00 0.00 0.00 82 1016.8
20260831112824 75 261 0.0 0.0 0.00 0.00 0.00 82 1018.1
20260831112301 75 261 0.0 0.0 0.00 0.00 0.00 82 1018.2
20260831111736 75 261 0.0 0.0 0.00 0.00 0.00 82 1018.1
20260831111600 74 261 0.0 0.0 0.00 0.00 0.00 82 1016.7
20260831111230 75 261 0.0 0.0 0.00 0.00 0.00 82 1018.1
20260831110733 75 261 0.0 0.0 0.00 0.00 0.00 81 1018.0
20260831110213 75 261 0.0 0.0 0.00 0.00 0.00 81 1018.0
20260831110012 75 261 0.0 0.0 0.00 0.00 0.00 81 1016.5
20260831105717 75 261 0.0 1.0 0.00 0.00 0.00 81 1017.9
20260831105201 75 261 0.0 1.0 0.00 0.00 0.00 81 1017.8
20260831104704 75 261 0.0 2.0 0.00 0.00 0.00 81 1017.8
20260831104531 75 261 0.0 1.0 0.00 0.00 0.00 81 1016.4
20260831104413 75 261 0.0 2.0 0.00 0.00 0.00 80 1017.7
20260831103647 75 261 0.0 3.0 0.00 0.00 0.00 80 1017.7
20260831103145 75 262 1.0 3.0 0.00 0.00 0.00 80 1017.6
20260831103049 75 262 0.0 3.0 0.00 0.00 0.00 80 1016.3
20260831102647 75 262 0.0 2.0 0.00 0.00 0.00 80 1017.7
20260831102138 75 262 0.0 1.0 0.00 0.00 0.00 80 1017.7
20260831101633 75 262 0.0 1.0 0.00 0.00 0.00 80 1017.6
20260831101608 75 262 0.0 1.0 0.00 0.00 0.00 80 1016.2
20260831101133 75 262 0.0 0.0 0.00 0.00 0.00 80 1017.6
20260831100634 76 262 0.0 0.0 0.00 0.00 0.00 79 1017.5
20260831100558 76 262 0.0 0.0 0.00 0.00 0.00 79 1017.5
20260831100018 75 262 0.0 0.0 0.00 0.00 0.00 79 1016.1
20260831095616 76 262 0.0 0.0 0.00 0.00 0.00 79 1017.6
20260831095055 76 262 0.0 0.0 0.00 0.00 0.00 79 1017.6
20260831094545 76 262 0.0 0.0 0.00 0.00 0.00 78 1017.6
20260831094507 75 262 0.0 0.0 0.00 0.00 0.00 78 1016.1
20260831094247 76 262 0.0 0.0 0.00 0.00 0.00 78 1017.6
20260831093528 76 262 0.0 0.0 0.00 0.00 0.00 78 1017.6
20260831093055 75 262 0.0 0.0 0.00 0.00 0.00 78 1016.2
20260831093007 76 262 0.0 0.0 0.00 0.00 0.00 78 1017.6
20260831092457 76 262 0.0 0.0 0.00 0.00 0.00 77 1017.6
20260831091953 76 262 0.0 0.0 0.00 0.00 0.00 77 1017.6
20260831091534 75 262 0.0 0.0 0.00 0.00 0.00 77 1016.2
20260831091455 76 262 0.0 0.0 0.00 0.00 0.00 77 1017.6
20260831090937 76 262 0.0 0.0 0.00 0.00 0.00 77 1017.6
20260831090419 76 263 0.0 0.0 0.00 0.00 0.00 77 1017.7
20260831090057 75 263 0.0 0.0 0.00 0.00 0.00 77 1016.2
20260831085920 76 263 0.0 0.0 0.00 0.00 0.00 77 1017.6
20260831085636 76 263 0.0 0.0 0.00 0.00 0.00 77 1017.6
20260831085402 76 263 0.0 0.0 0.00 0.00 0.00 78 1017.5
20260831084607 75 263 0.0 0.0 0.00 0.00 0.00 77 1016.0
20260831084416 76 263 0.0 0.0 0.00 0.00 0.00 78 1017.4
20260831083902 76 263 0.0 0.0 0.00 0.00 0.00 77 1017.4
20260831083626 76 263 0.0 0.0 0.00 0.00 0.00 77 1017.3
20260831083033 75 263 0.0 0.0 0.00 0.00 0.00 77 1015.8
20260831082859 76 263 0.0 3.0 0.00 0.00 0.00 77 1017.3
20260831082400 76 263 1.0 3.0 0.00 0.00 0.00 77 1017.2
20260831081900 76 262 1.0 3.0 0.00 0.00 0.00 77 1017.1
20260831081505 75 262 1.0 3.0 0.00 0.00 0.00 77 1015.5
20260831081343 76 260 1.0 2.0 0.00 0.00 0.00 77 1017.0
20260831080844 76 260 1.0 3.0 0.00 0.00 0.00 77 1016.8
20260831080325 76 260 1.0 2.0 0.00 0.00 0.00 77 1016.8
20260831080041 75 259 1.0 2.0 0.00 0.00 0.00 77 1015.4
20260831075823 76 259 1.0 2.0 0.00 0.00 0.00 77 1016.8
20260831075325 76 259 1.0 3.0 0.00 0.00 0.00 77 1016.8
20260831074800 76 259 1.0 3.0 0.00 0.00 0.00 77 1017.0
20260831074532 76 259 1.0 3.0 0.00 0.00 0.00 77 1015.5
20260831074257 76 257 1.0 2.0 0.00 0.00 0.00 77 1017.0
20260831073758 76 257 1.0 2.0 0.00 0.00 0.00 77 1016.8
20260831073255 76 257 1.0 2.0 0.00 0.00 0.00 77 1017.0
20260831073013 76 257 1.0 2.0 0.00 0.00 0.00 77 1015.6
20260831072756 76 257 0.0 2.0 0.00 0.00 0.00 77 1017.1
20260831072255 76 256 0.0 1.0 0.00 0.00 0.00 77 1017.2
20260831071739 76 256 0.0 2.0 0.00 0.00 0.00 77 1017.3
20260831071551 76 256 0.0 1.0 0.00 0.00 0.00 77 1015.8
20260831071205 76 256 0.0 1.0 0.00 0.00 0.00 77 1017.3
20260831070638 76 256 0.0 2.0 0.00 0.00 0.00 77 1017.2
20260831070110 76 256 0.0 1.0 0.00 0.00 0.00 77 1017.3
20260831070055 76 256 0.0 2.0 0.00 0.00 0.00 77 1015.9
20260831065804 76 256 0.0 0.0 0.00 0.00 0.00 78 1017.4
20260831065041 76 256 0.0 2.0 0.00 0.00 0.00 78 1017.4
20260831064541 76 256 1.0 2.0 0.00 0.00 0.00 77 1017.4
20260831064509 76 256 0.0 2.0 0.00 0.00 0.00 77 1016.0
20260831064034 77 256 1.0 2.0 0.00 0.00 0.00 77 1017.5
20260831063534 77 255 1.0 2.0 0.00 0.00 0.00 76 1017.6
20260831063111 76 255 0.0 2.0 0.00 0.00 0.00 76 1016.2
20260831063029 77 255 0.0 2.0 0.00 0.00 0.00 76 1017.7
20260831062503 77 254 0.0 1.0 0.00 0.00 0.00 75 1017.7
20260831062152 77 254 0.0 1.0 0.00 0.00 0.00 75 1017.9
20260831061607 77 254 0.0 1.0 0.00 0.00 0.00 75 1016.5
20260831061431 77 254 0.0 1.0 0.00 0.00 0.00 75 1018.0
20260831060929 77 254 0.0 0.0 0.00 0.00 0.00 75 1018.0
20260831060404 77 254 0.0 0.0 0.00 0.00 0.00 75 1018.0
20260831060041 77 254 0.0 0.0 0.00 0.00 0.00 75 1016.7
20260831055902 77 254 0.0 0.0 0.00 0.00 0.00 75 1018.1
20260831055334 77 254 0.0 0.0 0.00 0.00 0.00 75 1018.1
20260831054833 77 255 0.0 0.0 0.00 0.00 0.00 75 1017.9
20260831054545 77 254 0.0 0.0 0.00 0.00 0.00 75 1016.5
20260831054306 77 254 0.0 1.0 0.00 0.00 0.00 74 1017.9
20260831053741 77 254 0.0 1.0 0.00 0.00 0.00 74 1017.8
20260831053227 77 255 0.0 0.0 0.00 0.00 0.00 74 1017.9
20260831053028 77 255 0.0 0.0 0.00 0.00 0.00 74 1016.6
20260831052731 77 255 0.0 0.0 0.00 0.00 0.00 74 1018.0
20260831052201 77 255 0.0 0.0 0.00 0.00 0.00 74 1018.0
20260831051658 77 255 0.0 1.0 0.00 0.00 0.00 74 1018.0
20260831051536 77 255 0.0 1.0 0.00 0.00 0.00 74 1016.6
20260831051129 77 255 0.0 1.0 0.00 0.00 0.00 74 1018.0
20260831050625 77 255 0.0 0.0 0.00 0.00 0.00 73 1018.0
20260831050123 78 255 0.0 1.0 0.00 0.00 0.00 73 1017.9
20260831050036 77 255 0.0 1.0 0.00 0.00 0.00 73 1016.5
20260831045625 78 255 0.0 1.0 0.00 0.00 0.00 73 1017.7
20260831045057 78 255 0.0 1.0 0.00 0.00 0.00 73 1017.7
20260831044545 77 255 0.0 1.0 0.00 0.00 0.00 73 1016.3
20260831044527 78 255 0.0 1.0 0.00 0.00 0.00 73 1017.7
20260831044027 78 255 0.0 1.0 0.00 0.00 0.00 73 1017.7
20260831043457 78 255 0.0 0.0 0.00 0.00 0.00 72 1017.8
20260831043040 77 255 0.0 0.0 0.00 0.00 0.00 72 1016.5
20260831042956 78 255 0.0 0.0 0.00 0.00 0.00 72 1017.9
20260831042651 78 255 0.0 0.0 0.00 0.00 0.00 71 1017.9
20260831041904 78 255 0.0 0.0 0.00 0.00 0.00 71 1018.0
20260831041503 78 255 0.0 0.0 0.00 0.00 0.00 71 1016.5
20260831041336 78 255 0.0 1.0 0.00 0.00 0.00 71 1017.9
20260831040833 78 255 0.0 1.0 0.00 0.00 0.00 71 1017.9
20260831040309 78 255 0.0 1.0 0.00 0.00 0.00 70 1017.9
20260831035809 78 254 0.0 1.0 0.00 0.00 0.00 70 1017.9
20260831035519 79 254 0.0 2.0 0.00 0.00 0.00 70 1017.9
20260831034753 79 254 1.0 2.0 0.00 0.00 0.00 69 1017.9
20260831034528 79 255 0.0 2.0 0.00 0.00 0.00 69 1016.7
20260831034227 79 254 2.0 2.0 0.00 0.00 0.00 69 1018.0
20260831034140 80 254 1.0 2.0 0.00 0.00 0.00 68 1018.0
20260831033159 80 250 1.0 2.0 0.00 0.00 0.00 68 1018.0
20260831033117 80 273 1.0 2.0 0.00 0.00 0.00 67 1018.1
20260831033042 79 251 1.0 2.0 0.00 0.00 0.00 67 1016.7
20260831032106 80 273 1.0 2.0 0.00 0.00 0.00 67 1018.1
20260831031605 80 253 2.0 2.0 0.00 0.00 0.00 67 1018.0
20260831031541 80 253 1.0 2.0 0.00 0.00 0.00 67 1016.7
20260831031058 80 253 2.0 3.0 0.00 0.00 0.00 66 1017.9
20260831030552 80 253 2.0 3.0 0.00 0.00 0.00 66 1017.9
20260831030051 80 253 1.0 2.0 0.00 0.00 0.00 66 1017.8
20260831030022 80 253 1.0 2.0 0.00 0.00 0.00 66 1016.5
20260831025549 80 244 1.0 2.0 0.00 0.00 0.00 65 1017.8
20260831025049 80 273 1.0 3.0 0.00 0.00 0.00 65 1017.9
20260831024555 80 240 1.0 3.0 0.00 0.00 0.00 64 1016.6
20260831024540 81 240 2.0 3.0 0.00 0.00 0.00 64 1017.9
20260831024035 81 241 2.0 3.0 0.00 0.00 0.00 64 1017.9
20260831023516 81 240 1.0 2.0 0.00 0.00 0.00 64 1017.9
20260831023046 80 240 1.0 2.0 0.00 0.00 0.00 64 1016.6
20260831023014 81 273 1.0 2.0 0.00 0.00 0.00 64 1017.9
20260831022512 81 273 0.0 2.0 0.00 0.00 0.00 64 1017.9
20260831022016 81 273 1.0 3.0 0.00 0.00 0.00 64 1017.9
20260831021519 81 273 0.0 2.0 0.00 0.00 0.00 64 1016.6
20260831021449 81 273 1.0 3.0 0.00 0.00 0.00 64 1017.9
20260831020922 81 273 2.0 3.0 0.00 0.00 0.00 64 1017.9
20260831020423 81 273 2.0 3.0 0.00 0.00 0.00 64 1017.9
20260831020029 81 273 2.0 3.0 0.00 0.00 0.00 64 1016.5
20260831015859 81 273 1.0 3.0 0.00 0.00 0.00 64 1017.8
20260831015334 81 193 1.0 2.0 0.00 0.00 0.00 64 1017.9
20260831014833 81 273 1.0 2.0 0.00 0.00 0.00 64 1017.9
20260831014558 81 273 1.0 2.0 0.00 0.00 0.00 63 1016.6
20260831014309 81 273 2.0 2.0 0.00 0.00 0.00 63 1017.8
20260831013757 82 273 2.0 2.0 0.00 0.00 0.00 63 1017.7
20260831013253 82 273 1.0 2.0 0.00 0.00 0.00 62 1017.8
20260831013021 82 273 1.0 2.0 0.00 0.00 0.00 62 1016.5
20260831012753 82 273 0.0 2.0 0.00 0.00 0.00 61 1017.8
20260831012251 82 273 0.0 0.0 0.00 0.00 0.00 60 1017.7
20260831011949 82 273 0.0 0.0 0.00 0.00 0.00 60 1017.7
20260831011601 82 273 0.0 0.0 0.00 0.00 0.00 60 1016.4
20260831011447 83 273 0.0 0.0 0.00 0.00 0.00 59 1017.6
20260831010719 83 273 0.0 1.0 0.00 0.00 0.00 59 1017.6
20260831010219 83 273 0.0 1.0 0.00 0.00 0.00 59 1017.6
20260831010002 82 273 0.0 1.0 0.00 0.00 0.00 59 1016.3
20260831005711 83 273 0.0 1.0 0.00 0.00 0.00 59 1017.6
20260831005154 83 273 1.0 1.0 0.00 0.00 0.00 59 1017.5
20260831004653 83 197 0.0 1.0 0.00 0.00 0.00 59 1017.4
20260831004538 83 197 0.0 1.0 0.00 0.00 0.00 59 1016.1
20260831004135 83 199 0.0 0.0 0.00 0.00 0.00 58 1017.3
20260831003634 83 204 0.0 0.0 0.00 0.00 0.00 58 1017.2
20260831003355 83 203 0.0 1.0 0.00 0.00 0.00 57 1017.2
20260831003101 83 204 0.0 0.0 0.00 0.00 0.00 57 1015.9
20260831002631 84 197 0.0 1.0 0.00 0.00 0.00 57 1017.2
20260831002132 84 197 0.0 1.0 0.00 0.00 0.00 57 1017.3
20260831001616 84 196 0.0 3.0 0.00 0.00 0.00 57 1017.3
20260831001523 84 196 0.0 3.0 0.00 0.00 0.00 57 1015.9
20260831001117 84 196 1.0 3.0 0.00 0.00 0.00 57 1017.2
20260831000559 84 195 0.0 2.0 0.00 0.00 0.00 56 1017.2
20260831000036 84 195 1.0 2.0 0.00 0.00 0.00 56 1017.2
20260831000022 84 195 0.0 2.0 0.00 0.00 0.00 56 1015.8
20260830235737 84 195 1.0 2.0 0.00 0.00 0.00 56 1017.2
20260830234953 84 196 1.0 2.0 0.00 0.00 0.00 56 1017.2
20260830234530 84 195 0.0 2.0 0.00 0.00 0.00 56 1015.8
20260830234431 85 195 1.0 2.0 0.00 0.00 0.00 56 1017.2
20260830233930 85 196 1.0 3.0 0.00 0.00 0.00 56 1017.1
20260830233425 85 197 2.0 5.0 0.00 0.00 0.00 55 1017.1
20260830233051 85 201 1.0 4.0 0.00 0.00 0.00 56 1015.7
20260830232901 85 201 2.0 5.0 0.00 0.00 0.00 55 1017.1
20260830232343 85 203 2.0 5.0 0.00 0.00 0.00 55 1017.0
20260830231843 86 202 2.0 5.0 0.00 0.00 0.00 54 1016.8
20260830231605 86 178 1.0 5.0 0.00 0.00 0.00 54 1015.5
20260830231334 86 186 2.0 8.0 0.00 0.00 0.00 54 1016.7
20260830230836 87 145 3.0 8.0 0.00 0.00 0.00 53 1016.7
20260830230543 87 208 2.0 8.0 0.00 0.00 0.00 52 1016.6
20260830230044 87 129 2.0 8.0 0.00 0.00 0.00 52 1015.3
20260830225813 87 159 2.0 8.0 0.00 0.00 0.00 51 1016.5
20260830225254 87 198 2.0 6.0 0.00 0.00 0.00 54 1016.4
20260830224739 87 165 2.0 6.0 0.00 0.00 0.00 53 1016.4